This is the latest recevied weather packets stored in our database for station/object W0WC. If no packets are shown the sender has not sent any weather packets the latest 10 day(s).
| Time | Temp. | Humidity | Pressure | Rain* | Wind** | Luminosity | Snow |
|---|---|---|---|---|---|---|---|
| 1777766407 | 17.78° C | 32% | 1019.6 hPa | 0 mm | - | 78 W/m² | - |
| 1777766103 | 17.78° C | 32% | 1019.6 hPa | 0 mm | - | 88 W/m² | - |
| 1777765801 | 17.78° C | 32% | 1019.6 hPa | 0 mm | - | 99 W/m² | - |
| 1777765497 | 17.78° C | 31% | 1019.7 hPa | 0 mm | - | 110 W/m² | - |
| 1777765195 | 18.33° C | 30% | 1019.7 hPa | 0 mm | - | 122 W/m² | - |
| 1777764890 | 18.33° C | 30% | 1019.7 hPa | 0 mm | - | 135 W/m² | - |
| 1777764587 | 18.33° C | 29% | 1019.7 hPa | 0 mm | - | 148 W/m² | - |
| 1777764283 | 18.33° C | 31% | 1019.7 hPa | 0 mm | - | 161 W/m² | - |
| 1777763980 | 17.78° C | 30% | 1019.9 hPa | 0 mm | - | 175 W/m² | - |
| 1777763678 | 17.78° C | 30% | 1019.8 hPa | 0 mm | - | 189 W/m² | - |
| 1777763376 | 18.33° C | 30% | 1019.8 hPa | 0 mm | - | 205 W/m² | - |
| 1777763073 | 17.78° C | 29% | 1020 hPa | 0 mm | - | 219 W/m² | - |
| 1777762771 | 17.78° C | 29% | 1020 hPa | 0 mm | - | 233 W/m² | - |
| 1777762467 | 18.33° C | 31% | 1019.8 hPa | 0 mm | - | 249 W/m² | - |
| 1777762164 | 18.33° C | 30% | 1019.9 hPa | 0 mm | - | 264 W/m² | - |
| 1777761860 | 17.78° C | 31% | 1020.1 hPa | 0 mm | - | 281 W/m² | - |
| 1777761557 | 18.33° C | 30% | 1019.9 hPa | 0 mm | - | 297 W/m² | - |
| 1777761255 | 17.78° C | 30% | 1019.9 hPa | 0 mm | - | 314 W/m² | - |
| 1777760953 | 18.33° C | 29% | 1019.9 hPa | 0 mm | - | 330 W/m² | - |
| 1777760650 | 18.33° C | 30% | 1019.9 hPa | 0 mm | - | 344 W/m² | - |
| 1777760351 | 18.89° C | 31% | 1020 hPa | 0 mm | - | 361 W/m² | - |
| 1777760048 | 18.33° C | 28% | 1019.8 hPa | 0 mm | - | 378 W/m² | - |
| 1777759745 | 18.33° C | 31% | 1020 hPa | 0 mm | - | 393 W/m² | - |
| 1777759441 | 18.33° C | 30% | 1019.9 hPa | 0 mm | - | 409 W/m² | - |
| 1777759137 | 18.33° C | 32% | 1019.9 hPa | 0 mm | - | 422 W/m² | - |
* Rain latest hour (hover to see other rain measurements)
** Current wind speed in m/s (hover to see current wind gust speed)